Time,TemperatureF,DewpointF,PressureIn,WindDirection,WindDirectionDegrees,WindSpeedMPH,WindSpeedGustMPH,Humidity,HourlyPrecipIn,Conditions,Clouds,dailyrainin,SolarRadiationWatts/m^2,SoftwareType,DateUTC
2013-06-21 00:01:00,59.7,57.0,30.26,SSE,151,0.0,1.0,91,0.00,,,0.00,0.0,meteohub,2013-06-21 04:01:00,
2013-06-21 00:02:00,59.7,57.0,30.26,SSE,151,0.0,1.0,91,0.00,,,0.00,0.0,meteohub,2013-06-21 04:02:00,
2013-06-21 00:03:00,59.7,57.0,30.26,SSE,151,0.0,1.0,91,0.00,,,0.00,0.0,meteohub,2013-06-21 04:03:00,
2013-06-21 00:08:00,60.1,57.7,30.26,SSW,205,0.0,0.0,92,0.00,,,0.00,0.0,meteohub,2013-06-21 04:08:00,
2013-06-21 00:13:00,60.1,57.4,30.26,SSW,205,0.0,2.0,91,0.00,,,0.00,0.0,meteohub,2013-06-21 04:13:00,
2013-06-21 00:18:00,60.1,57.7,30.26,SSW,205,0.0,2.0,92,0.00,,,0.00,0.0,meteohub,2013-06-21 04:18:00,
2013-06-21 00:23:00,60.1,57.4,30.26,SSW,205,0.0,2.0,91,0.00,,,0.00,0.0,meteohub,2013-06-21 04:23:00,
2013-06-21 00:28:00,59.7,57.0,30.27,SSW,205,0.0,0.0,91,0.00,,,0.00,0.0,meteohub,2013-06-21 04:28:00,
2013-06-21 00:33:00,59.4,57.0,30.27,SSW,205,0.0,0.0,92,0.00,,,0.00,0.0,meteohub,2013-06-21 04:33:00,
2013-06-21 00:38:00,59.4,57.0,30.27,SSW,205,0.0,0.0,92,0.00,,,0.00,0.0,meteohub,2013-06-21 04:38:00,
2013-06-21 00:44:00,59.2,56.8,30.27,SSW,205,0.0,0.0,92,0.00,,,0.00,0.0,meteohub,2013-06-21 04:44:00,
2013-06-21 00:49:00,59.4,57.0,30.27,SSW,205,0.0,0.0,92,0.00,,,0.00,0.0,meteohub,2013-06-21 04:49:00,
2013-06-21 00:54:00,59.2,56.8,30.27,SSW,205,0.0,0.0,92,0.00,,,0.00,0.0,meteohub,2013-06-21 04:54:00,
2013-06-21 00:59:00,59.2,56.8,30.27,SSW,205,0.0,0.0,92,0.00,,,0.00,0.0,meteohub,2013-06-21 04:59:00,
2013-06-21 01:04:00,59.2,56.8,30.27,SSW,205,0.0,0.0,92,0.00,,,0.00,0.0,meteohub,2013-06-21 05:04:00,
2013-06-21 01:09:00,58.8,56.5,30.27,SSW,205,0.0,0.0,92,0.00,,,0.00,0.0,meteohub,2013-06-21 05:09:00,
2013-06-21 01:14:00,58.8,56.5,30.27,SSW,205,0.0,0.0,92,0.00,,,0.00,0.0,meteohub,2013-06-21 05:14:00,
2013-06-21 01:19:00,58.6,56.3,30.27,SSW,205,0.0,0.0,92,0.00,,,0.00,0.0,meteohub,2013-06-21 05:19:00,
2013-06-21 01:25:00,58.5,56.1,30.27,SSW,205,0.0,0.0,92,0.00,,,0.00,0.0,meteohub,2013-06-21 05:25:00,
2013-06-21 01:30:00,58.1,55.8,30.27,SSW,205,0.0,0.0,92,0.00,,,0.00,0.0,meteohub,2013-06-21 05:30:00,
2013-06-21 01:35:00,58.3,56.3,30.27,SSW,205,0.0,0.0,93,0.00,,,0.00,0.0,meteohub,2013-06-21 05:35:00,
2013-06-21 01:40:00,58.1,56.1,30.27,SSW,205,0.0,1.0,93,0.00,,,0.00,0.0,meteohub,2013-06-21 05:40:00,
2013-06-21 01:45:00,57.9,55.9,30.27,SSW,205,0.0,1.0,93,0.00,,,0.00,0.0,meteohub,2013-06-21 05:45:00,
2013-06-21 01:50:00,57.9,55.9,30.26,SSW,205,0.0,0.0,93,0.00,,,0.00,0.0,meteohub,2013-06-21 05:50:00,
2013-06-21 01:55:00,57.7,55.8,30.26,SSW,205,0.0,0.0,93,0.00,,,0.00,0.0,meteohub,2013-06-21 05:55:00,
2013-06-21 02:00:00,57.7,55.8,30.26,SSW,205,0.0,0.0,93,0.00,,,0.00,0.0,meteohub,2013-06-21 06:00:00,
2013-06-21 02:06:00,57.7,55.8,30.26,SSW,205,0.0,0.0,93,0.00,,,0.00,0.0,meteohub,2013-06-21 06:06:00,
2013-06-21 02:11:00,57.6,55.6,30.25,SSW,205,0.0,0.0,93,0.00,,,0.00,0.0,meteohub,2013-06-21 06:11:00,
2013-06-21 02:16:00,57.4,55.4,30.26,SSW,205,0.0,0.0,93,0.00,,,0.00,0.0,meteohub,2013-06-21 06:16:00,
2013-06-21 02:21:00,57.4,55.4,30.26,SSW,205,0.0,2.0,93,0.00,,,0.00,0.0,meteohub,2013-06-21 06:21:00,
2013-06-21 02:26:00,57.2,55.2,30.26,SSW,205,0.0,2.0,93,0.00,,,0.00,0.0,meteohub,2013-06-21 06:26:00,
2013-06-21 02:31:00,57.0,55.0,30.26,SSW,205,1.0,2.0,93,0.00,,,0.00,0.0,meteohub,2013-06-21 06:31:00,
2013-06-21 02:36:00,56.8,54.9,30.26,SSW,205,0.0,2.0,93,0.00,,,0.00,0.0,meteohub,2013-06-21 06:36:00,
2013-06-21 02:42:00,56.7,54.7,30.27,SSW,205,0.0,2.0,93,0.00,,,0.00,0.0,meteohub,2013-06-21 06:42:00,
2013-06-21 02:47:00,56.7,55.0,30.27,SSW,205,0.0,3.0,94,0.00,,,0.00,0.0,meteohub,2013-06-21 06:47:00,
2013-06-21 02:52:00,56.8,55.2,30.26,SSW,205,0.0,3.0,94,0.00,,,0.00,0.0,meteohub,2013-06-21 06:52:00,
2013-06-21 02:57:00,57.0,55.2,30.27,SSW,205,0.0,0.0,94,0.00,,,0.00,0.0,meteohub,2013-06-21 06:57:00,
2013-06-21 03:02:00,57.0,55.0,30.26,SSW,205,0.0,0.0,93,0.00,,,0.00,0.0,meteohub,2013-06-21 07:02:00,
2013-06-21 03:07:00,56.7,54.7,30.26,SSW,205,0.0,0.0,93,0.00,,,0.00,0.0,meteohub,2013-06-21 07:07:00,
2013-06-21 03:12:00,56.8,55.2,30.26,SSW,205,0.0,0.0,94,0.00,,,0.00,0.0,meteohub,2013-06-21 07:12:00,
2013-06-21 03:17:00,56.7,54.7,30.25,SSW,205,0.0,0.0,93,0.00,,,0.00,0.0,meteohub,2013-06-21 07:17:00,
2013-06-21 03:22:00,56.8,55.2,30.25,SSW,205,0.0,0.0,94,0.00,,,0.00,0.0,meteohub,2013-06-21 07:22:00,
2013-06-21 03:27:00,56.8,55.2,30.25,SSW,205,0.0,0.0,94,0.00,,,0.00,0.0,meteohub,2013-06-21 07:27:00,
2013-06-21 03:32:00,57.0,55.0,30.25,SSW,205,0.0,1.0,93,0.00,,,0.00,0.0,meteohub,2013-06-21 07:32:00,
2013-06-21 03:37:00,57.0,55.0,30.25,SSW,205,0.0,1.0,93,0.00,,,0.00,0.0,meteohub,2013-06-21 07:37:00,
2013-06-21 03:42:00,57.0,55.0,30.26,SSW,205,0.0,1.0,93,0.00,,,0.00,0.0,meteohub,2013-06-21 07:42:00,
2013-06-21 03:47:00,57.0,55.0,30.26,SSW,205,2.0,3.0,93,0.00,,,0.00,0.0,meteohub,2013-06-21 07:47:00,
2013-06-21 03:52:00,56.7,54.7,30.26,SSW,205,0.0,3.0,93,0.00,,,0.00,0.0,meteohub,2013-06-21 07:52:00,
2013-06-21 03:57:00,56.5,54.5,30.25,SSW,205,0.0,3.0,93,0.00,,,0.00,0.0,meteohub,2013-06-21 07:57:00,
2013-06-21 04:02:00,56.7,54.7,30.25,SSW,205,0.0,3.0,93,0.00,,,0.00,0.0,meteohub,2013-06-21 08:02:00,
2013-06-21 04:07:00,56.3,54.3,30.26,SSW,205,0.0,3.0,93,0.00,,,0.00,0.0,meteohub,2013-06-21 08:07:00,
2013-06-21 04:12:00,56.1,54.1,30.26,SSW,205,1.0,2.0,93,0.00,,,0.00,0.0,meteohub,2013-06-21 08:12:00,
2013-06-21 04:17:00,56.3,54.3,30.26,SSW,205,0.0,2.0,93,0.00,,,0.00,0.0,meteohub,2013-06-21 08:17:00,
2013-06-21 04:22:00,56.1,54.1,30.26,SSW,205,0.0,2.0,93,0.00,,,0.00,0.0,meteohub,2013-06-21 08:22:00,
2013-06-21 04:27:00,56.1,54.5,30.26,SSW,205,0.0,2.0,94,0.00,,,0.00,0.0,meteohub,2013-06-21 08:27:00,
2013-06-21 04:32:00,56.3,54.7,30.26,SSW,205,0.0,1.0,94,0.00,,,0.00,0.0,meteohub,2013-06-21 08:32:00,
2013-06-21 04:37:00,56.1,54.1,30.26,SSW,205,0.0,1.0,93,0.00,,,0.00,0.0,meteohub,2013-06-21 08:37:00,
2013-06-21 04:42:00,55.9,54.0,30.26,SSW,205,0.0,1.0,93,0.00,,,0.00,0.0,meteohub,2013-06-21 08:42:00,
2013-06-21 04:47:00,55.9,54.3,30.26,SSW,205,0.0,1.0,94,0.00,,,0.00,0.0,meteohub,2013-06-21 08:47:00,
2013-06-21 04:52:00,55.8,53.8,30.26,SSW,205,0.0,1.0,93,0.00,,,0.00,0.0,meteohub,2013-06-21 08:52:00,
2013-06-21 04:57:00,55.8,54.1,30.26,SSW,205,0.0,1.0,94,0.00,,,0.00,0.0,meteohub,2013-06-21 08:57:00,
2013-06-21 05:02:00,55.8,54.1,30.26,SSW,205,0.0,1.0,94,0.00,,,0.00,0.0,meteohub,2013-06-21 09:02:00,
2013-06-21 05:07:00,56.1,54.5,30.25,SSW,205,0.0,0.0,94,0.00,,,0.00,0.0,meteohub,2013-06-21 09:07:00,
2013-06-21 05:12:00,56.1,54.5,30.26,SSW,205,0.0,2.0,94,0.00,,,0.00,0.0,meteohub,2013-06-21 09:12:00,
2013-06-21 05:17:00,55.9,54.3,30.26,SSW,205,0.0,2.0,94,0.00,,,0.00,0.0,meteohub,2013-06-21 09:17:00,
2013-06-21 05:22:00,56.1,54.5,30.26,SSW,205,1.0,2.0,94,0.00,,,0.00,0.0,meteohub,2013-06-21 09:22:00,
2013-06-21 05:27:00,56.1,54.5,30.26,SSW,205,0.0,4.0,94,0.00,,,0.00,5.0,meteohub,2013-06-21 09:27:00,
2013-06-21 05:32:00,56.7,55.0,30.26,SSW,205,0.0,4.0,94,0.00,,,0.00,9.0,meteohub,2013-06-21 09:32:00,
2013-06-21 05:37:00,57.0,55.2,30.26,SSW,198,1.0,3.0,94,0.00,,,0.00,12.0,meteohub,2013-06-21 09:37:00,
2013-06-21 05:42:00,57.6,55.8,30.27,SSE,155,0.0,4.0,94,0.00,,,0.00,16.0,meteohub,2013-06-21 09:42:00,
2013-06-21 05:47:00,57.7,55.8,30.27,SSE,155,0.0,4.0,93,0.00,,,0.00,21.0,meteohub,2013-06-21 09:47:00,
2013-06-21 05:52:00,58.3,56.5,30.27,SSE,167,0.0,4.0,94,0.00,,,0.00,26.0,meteohub,2013-06-21 09:52:00,
2013-06-21 05:57:00,58.1,56.1,30.27,SSE,167,0.0,2.0,93,0.00,,,0.00,35.0,meteohub,2013-06-21 09:57:00,
2013-06-21 06:02:00,58.5,56.7,30.27,SSE,167,0.0,2.0,94,0.00,,,0.00,40.0,meteohub,2013-06-21 10:02:00,
2013-06-21 06:07:00,59.0,57.0,30.27,SSE,167,0.0,2.0,93,0.00,,,0.00,47.0,meteohub,2013-06-21 10:07:00,
2013-06-21 06:12:00,59.7,57.7,30.27,SSE,167,0.0,2.0,93,0.00,,,0.00,33.0,meteohub,2013-06-21 10:12:00,
2013-06-21 06:17:00,60.4,58.1,30.27,SSE,167,1.0,2.0,92,0.00,,,0.00,63.0,meteohub,2013-06-21 10:17:00,
2013-06-21 06:22:00,61.0,58.3,30.27,SSW,197,0.0,3.0,91,0.00,,,0.00,79.0,meteohub,2013-06-21 10:22:00,
2013-06-21 06:27:00,61.5,58.8,30.27,SSW,197,0.0,3.0,91,0.00,,,0.00,90.0,meteohub,2013-06-21 10:27:00,
2013-06-21 06:32:00,62.1,59.2,30.27,SW,229,0.0,3.0,90,0.00,,,0.00,100.0,meteohub,2013-06-21 10:32:00,
2013-06-21 06:37:00,62.8,59.5,30.27,SSW,212,4.0,4.0,89,0.00,,,0.00,113.0,meteohub,2013-06-21 10:37:00,
2013-06-21 06:42:00,63.1,59.2,30.27,SSW,211,0.0,6.0,87,0.00,,,0.00,125.0,meteohub,2013-06-21 10:42:00,
2013-06-21 06:47:00,63.7,59.7,30.27,SSW,195,0.0,6.0,87,0.00,,,0.00,142.0,meteohub,2013-06-21 10:47:00,
2013-06-21 06:52:00,63.9,59.2,30.27,SSW,202,2.0,6.0,85,0.00,,,0.00,155.0,meteohub,2013-06-21 10:52:00,
2013-06-21 06:57:00,64.0,59.2,30.27,WSW,256,0.0,5.0,84,0.00,,,0.00,171.0,meteohub,2013-06-21 10:57:00,
2013-06-21 07:02:00,64.6,59.4,30.27,West,259,1.0,7.0,83,0.00,,,0.00,183.0,meteohub,2013-06-21 11:02:00,
2013-06-21 07:07:00,64.8,59.5,30.27,SSE,154,1.0,7.0,83,0.00,,,0.00,195.0,meteohub,2013-06-21 11:07:00,
2013-06-21 07:12:00,64.9,59.4,30.27,SSW,199,0.0,7.0,82,0.00,,,0.00,220.0,meteohub,2013-06-21 11:12:00,
2013-06-21 07:17:00,65.5,59.5,30.28,South,178,5.0,7.0,81,0.00,,,0.00,236.0,meteohub,2013-06-21 11:17:00,
2013-06-21 07:22:00,65.7,59.7,30.28,WSW,237,4.0,7.0,81,0.00,,,0.00,251.0,meteohub,2013-06-21 11:22:00,
2013-06-21 07:27:00,65.7,59.4,30.27,SW,221,2.0,9.0,80,0.00,,,0.00,272.0,meteohub,2013-06-21 11:27:00,
2013-06-21 07:32:00,65.7,59.4,30.27,SW,233,4.0,10.0,80,0.00,,,0.00,292.0,meteohub,2013-06-21 11:32:00,
2013-06-21 07:37:00,65.8,59.2,30.28,SSW,195,6.0,10.0,79,0.00,,,0.00,302.0,meteohub,2013-06-21 11:37:00,
2013-06-21 07:42:00,66.0,59.0,30.27,South,188,0.0,12.0,78,0.00,,,0.00,320.0,meteohub,2013-06-21 11:42:00,
2013-06-21 07:47:00,66.4,59.4,30.27,SW,223,6.0,12.0,78,0.00,,,0.00,327.0,meteohub,2013-06-21 11:47:00,
2013-06-21 07:52:00,66.4,59.4,30.27,SSW,213,2.0,12.0,78,0.00,,,0.00,345.0,meteohub,2013-06-21 11:52:00,
2013-06-21 07:57:00,66.4,59.0,30.27,SW,218,5.0,10.0,77,0.00,,,0.00,359.0,meteohub,2013-06-21 11:57:00,
2013-06-21 08:02:00,66.4,59.4,30.27,SW,229,4.0,10.0,78,0.00,,,0.00,371.0,meteohub,2013-06-21 12:02:00,
2013-06-21 08:07:00,66.6,59.2,30.27,West,279,4.0,10.0,77,0.00,,,0.00,390.0,meteohub,2013-06-21 12:07:00,
2013-06-21 08:12:00,66.9,59.2,30.27,SW,234,3.0,10.0,76,0.00,,,0.00,403.0,meteohub,2013-06-21 12:12:00,
2013-06-21 08:18:00,66.9,58.8,30.27,SW,224,7.0,10.0,75,0.00,,,0.00,418.0,meteohub,2013-06-21 12:18:00,
2013-06-21 08:23:00,66.9,59.2,30.28,NW,325,2.0,8.0,76,0.00,,,0.00,436.0,meteohub,2013-06-21 12:23:00,
2013-06-21 08:28:00,67.5,58.8,30.28,SSW,201,4.0,8.0,74,0.00,,,0.00,448.0,meteohub,2013-06-21 12:28:00,
2013-06-21 08:33:00,67.6,59.0,30.28,SW,220,5.0,8.0,74,0.00,,,0.00,462.0,meteohub,2013-06-21 12:33:00,
2013-06-21 08:38:00,67.8,59.2,30.28,SSW,211,2.0,13.0,74,0.00,,,0.00,475.0,meteohub,2013-06-21 12:38:00,
2013-06-21 08:43:00,68.0,59.0,30.28,SSW,201,5.0,13.0,73,0.00,,,0.00,492.0,meteohub,2013-06-21 12:43:00,
2013-06-21 08:48:00,67.6,58.3,30.27,SSW,202,7.0,13.0,72,0.00,,,0.00,508.0,meteohub,2013-06-21 12:48:00,
2013-06-21 08:53:00,67.6,58.3,30.27,SSW,204,3.0,11.0,72,0.00,,,0.00,520.0,meteohub,2013-06-21 12:53:00,
2013-06-21 08:58:00,67.8,58.5,30.28,South,176,2.0,14.0,72,0.00,,,0.00,533.0,meteohub,2013-06-21 12:58:00,
2013-06-21 09:04:00,68.2,58.5,30.28,SE,138,10.0,14.0,71,0.00,,,0.00,547.0,meteohub,2013-06-21 13:04:00,
2013-06-21 09:09:00,68.0,57.9,30.28,SE,146,4.0,12.0,70,0.00,,,0.00,559.0,meteohub,2013-06-21 13:09:00,
2013-06-21 09:14:00,67.8,57.7,30.27,SW,230,11.0,12.0,70,0.00,,,0.00,575.0,meteohub,2013-06-21 13:14:00,
2013-06-21 09:19:00,67.8,57.2,30.27,WSW,252,3.0,13.0,69,0.00,,,0.00,587.0,meteohub,2013-06-21 13:19:00,
2013-06-21 09:24:00,68.2,57.6,30.27,SW,233,6.0,13.0,69,0.00,,,0.00,598.0,meteohub,2013-06-21 13:24:00,
2013-06-21 09:29:00,68.7,58.1,30.27,SSW,198,8.0,13.0,69,0.00,,,0.00,613.0,meteohub,2013-06-21 13:29:00,
2013-06-21 09:34:00,69.1,58.1,30.27,South,179,4.0,13.0,68,0.00,,,0.00,622.0,meteohub,2013-06-21 13:34:00,
2013-06-21 09:39:00,69.3,58.3,30.27,WSW,248,7.0,12.0,68,0.00,,,0.00,638.0,meteohub,2013-06-21 13:39:00,
2013-06-21 09:45:00,69.3,58.3,30.27,SW,228,4.0,13.0,68,0.00,,,0.00,652.0,meteohub,2013-06-21 13:45:00,
2013-06-21 09:50:00,69.6,58.6,30.27,SSE,159,1.0,13.0,68,0.00,,,0.00,659.0,meteohub,2013-06-21 13:50:00,
2013-06-21 09:55:00,70.9,59.0,30.27,WSW,242,3.0,13.0,66,0.00,,,0.00,673.0,meteohub,2013-06-21 13:55:00,
2013-06-21 10:00:00,70.3,58.1,30.27,SSW,213,4.0,17.0,65,0.00,,,0.00,684.0,meteohub,2013-06-21 14:00:00,
2013-06-21 10:05:00,69.4,57.6,30.27,SW,221,6.0,17.0,66,0.00,,,0.00,694.0,meteohub,2013-06-21 14:05:00,
2013-06-21 10:10:00,69.6,58.1,30.27,South,183,4.0,17.0,67,0.00,,,0.00,708.0,meteohub,2013-06-21 14:10:00,
2013-06-21 10:15:00,70.2,58.6,30.27,South,190,5.0,14.0,67,0.00,,,0.00,719.0,meteohub,2013-06-21 14:15:00,
2013-06-21 10:20:00,70.5,58.6,30.27,South,187,1.0,14.0,66,0.00,,,0.00,728.0,meteohub,2013-06-21 14:20:00,
2013-06-21 10:25:00,71.4,59.0,30.27,SW,225,2.0,12.0,65,0.00,,,0.00,737.0,meteohub,2013-06-21 14:25:00,
2013-06-21 10:31:00,71.8,59.4,30.27,SW,219,3.0,13.0,65,0.00,,,0.00,744.0,meteohub,2013-06-21 14:31:00,
2013-06-21 10:36:00,72.1,59.4,30.27,WSW,248,5.0,13.0,64,0.00,,,0.00,751.0,meteohub,2013-06-21 14:36:00,
2013-06-21 10:41:00,72.7,58.8,30.27,SW,215,5.0,13.0,62,0.00,,,0.00,763.0,meteohub,2013-06-21 14:41:00,
2013-06-21 10:46:00,72.7,59.4,30.27,SSW,209,4.0,13.0,63,0.00,,,0.00,766.0,meteohub,2013-06-21 14:46:00,
2013-06-21 10:51:00,72.3,59.0,30.27,SSW,199,3.0,12.0,63,0.00,,,0.00,780.0,meteohub,2013-06-21 14:51:00,
2013-06-21 10:56:00,72.3,59.0,30.27,ESE,114,6.0,12.0,63,0.00,,,0.00,793.0,meteohub,2013-06-21 14:56:00,
2013-06-21 11:01:00,72.7,59.4,30.27,SW,225,1.0,12.0,63,0.00,,,0.00,798.0,meteohub,2013-06-21 15:01:00,
2013-06-21 11:06:00,72.9,59.0,30.27,WSW,242,4.0,10.0,62,0.00,,,0.00,803.0,meteohub,2013-06-21 15:06:00,
2013-06-21 11:12:00,72.9,59.0,30.27,NW,311,11.0,11.0,62,0.00,,,0.00,812.0,meteohub,2013-06-21 15:12:00,
2013-06-21 11:17:00,73.8,59.0,30.27,SSW,195,1.0,11.0,60,0.00,,,0.00,824.0,meteohub,2013-06-21 15:17:00,
2013-06-21 11:22:00,73.9,58.6,30.27,WSW,246,5.0,13.0,59,0.00,,,0.00,830.0,meteohub,2013-06-21 15:22:00,
2013-06-21 11:27:00,74.1,58.5,30.27,South,180,6.0,13.0,58,0.00,,,0.00,842.0,meteohub,2013-06-21 15:27:00,
2013-06-21 11:32:00,74.3,58.6,30.27,SW,234,12.0,14.0,58,0.00,,,0.00,840.0,meteohub,2013-06-21 15:32:00,
2013-06-21 11:37:00,74.1,58.5,30.27,WSW,245,10.0,15.0,58,0.00,,,0.00,844.0,meteohub,2013-06-21 15:37:00,
2013-06-21 11:42:00,75.0,58.8,30.28,WNW,290,6.0,15.0,57,0.00,,,0.00,849.0,meteohub,2013-06-21 15:42:00,
2013-06-21 11:48:00,75.6,59.2,30.28,WSW,248,7.0,15.0,57,0.00,,,0.00,865.0,meteohub,2013-06-21 15:48:00,
2013-06-21 11:53:00,75.4,58.6,30.28,NW,308,9.0,11.0,56,0.00,,,0.00,872.0,meteohub,2013-06-21 15:53:00,
2013-06-21 11:58:00,75.9,59.5,30.28,WNW,300,6.0,16.0,57,0.00,,,0.00,870.0,meteohub,2013-06-21 15:58:00,
2013-06-21 12:03:00,75.6,58.8,30.27,SW,235,6.0,16.0,56,0.00,,,0.00,877.0,meteohub,2013-06-21 16:03:00,
2013-06-21 12:08:00,74.8,58.6,30.27,South,185,8.0,16.0,57,0.00,,,0.00,877.0,meteohub,2013-06-21 16:08:00,
2013-06-21 12:13:00,75.4,59.0,30.27,South,177,6.0,15.0,57,0.00,,,0.00,865.0,meteohub,2013-06-21 16:13:00,
2013-06-21 12:18:00,75.0,59.2,30.27,SSW,212,11.0,15.0,58,0.00,,,0.00,884.0,meteohub,2013-06-21 16:18:00,
2013-06-21 12:23:00,75.4,59.5,30.26,SSW,202,1.0,13.0,58,0.00,,,0.00,884.0,meteohub,2013-06-21 16:23:00,
2013-06-21 12:28:00,76.3,59.9,30.27,ESE,116,6.0,17.0,57,0.00,,,0.00,891.0,meteohub,2013-06-21 16:28:00,
2013-06-21 12:34:00,76.6,59.7,30.27,South,183,6.0,17.0,56,0.00,,,0.00,900.0,meteohub,2013-06-21 16:34:00,
2013-06-21 12:39:00,76.3,59.4,30.27,South,187,10.0,14.0,56,0.00,,,0.00,904.0,meteohub,2013-06-21 16:39:00,
2013-06-21 12:44:00,76.3,59.9,30.27,South,171,4.0,15.0,57,0.00,,,0.00,898.0,meteohub,2013-06-21 16:44:00,
2013-06-21 12:49:00,77.2,60.3,30.27,West,269,4.0,15.0,56,0.00,,,0.00,902.0,meteohub,2013-06-21 16:49:00,
2013-06-21 12:54:00,77.7,60.3,30.27,WSW,254,3.0,15.0,55,0.00,,,0.00,893.0,meteohub,2013-06-21 16:54:00,
2013-06-21 13:00:00,77.4,59.9,30.27,SSW,192,6.0,12.0,55,0.00,,,0.00,900.0,meteohub,2013-06-21 17:00:00,
2013-06-21 13:05:00,76.8,59.4,30.27,West,259,10.0,14.0,55,0.00,,,0.00,882.0,meteohub,2013-06-21 17:05:00,
2013-06-21 13:10:00,77.5,60.6,30.27,West,275,0.0,16.0,56,0.00,,,0.00,889.0,meteohub,2013-06-21 17:10:00,
2013-06-21 13:15:00,78.4,61.0,30.27,SSE,153,4.0,16.0,55,0.00,,,0.00,896.0,meteohub,2013-06-21 17:15:00,
2013-06-21 13:20:00,78.4,61.0,30.27,SW,225,8.0,12.0,55,0.00,,,0.00,893.0,meteohub,2013-06-21 17:20:00,
2013-06-21 13:25:00,78.3,60.8,30.27,West,265,4.0,12.0,55,0.00,,,0.00,877.0,meteohub,2013-06-21 17:25:00,
2013-06-21 13:31:00,79.0,60.4,30.27,SSW,198,4.0,12.0,53,0.00,,,0.00,895.0,meteohub,2013-06-21 17:31:00,
2013-06-21 13:37:00,77.7,59.7,30.27,WSW,238,6.0,16.0,54,0.00,,,0.00,889.0,meteohub,2013-06-21 17:37:00,
2013-06-21 13:42:00,77.9,59.9,30.27,SW,227,10.0,16.0,54,0.00,,,0.00,875.0,meteohub,2013-06-21 17:42:00,
2013-06-21 13:46:00,77.7,59.7,30.26,South,180,7.0,16.0,54,0.00,,,0.00,868.0,meteohub,2013-06-21 17:46:00,
2013-06-21 13:47:00,77.7,59.7,30.27,SSW,202,4.0,16.0,54,0.00,,,0.00,868.0,meteohub,2013-06-21 17:47:00,
2013-06-21 13:48:00,77.7,60.3,30.27,SW,214,13.0,16.0,55,0.00,,,0.00,877.0,meteohub,2013-06-21 17:48:00,
2013-06-21 13:49:00,77.7,60.3,30.27,SSE,167,6.0,16.0,55,0.00,,,0.00,877.0,meteohub,2013-06-21 17:49:00,
2013-06-21 13:54:00,78.6,60.6,30.26,West,263,3.0,14.0,54,0.00,,,0.00,870.0,meteohub,2013-06-21 17:54:00,
2013-06-21 13:59:00,78.3,60.8,30.25,WSW,238,12.0,14.0,55,0.00,,,0.00,858.0,meteohub,2013-06-21 17:59:00,
2013-06-21 14:04:00,77.9,61.0,30.25,South,191,5.0,17.0,56,0.00,,,0.00,851.0,meteohub,2013-06-21 18:04:00,
2013-06-21 14:09:00,78.6,61.5,30.25,SSW,198,4.0,17.0,56,0.00,,,0.00,824.0,meteohub,2013-06-21 18:09:00,
2013-06-21 14:15:00,79.0,60.4,30.25,SW,234,6.0,17.0,53,0.00,,,0.00,821.0,meteohub,2013-06-21 18:15:00,
2013-06-21 14:20:00,78.4,61.0,30.25,South,187,6.0,14.0,55,0.00,,,0.00,830.0,meteohub,2013-06-21 18:20:00,
2013-06-21 14:23:00,79.2,61.2,30.25,South,190,1.0,14.0,54,0.00,,,0.00,812.0,meteohub,2013-06-21 18:23:00,
2013-06-21 14:24:00,79.2,61.2,30.25,SW,224,10.0,14.0,54,0.00,,,0.00,812.0,meteohub,2013-06-21 18:24:00,
2013-06-21 14:26:00,79.3,61.2,30.25,South,190,9.0,14.0,54,0.00,,,0.00,814.0,meteohub,2013-06-21 18:26:00,
2013-06-21 14:31:00,79.2,61.2,30.24,SW,220,4.0,17.0,54,0.00,,,0.00,809.0,meteohub,2013-06-21 18:31:00,
2013-06-21 14:36:00,79.2,60.6,30.24,SSW,211,9.0,17.0,53,0.00,,,0.00,805.0,meteohub,2013-06-21 18:36:00,
2013-06-21 14:42:00,79.2,60.6,30.23,SW,217,7.0,17.0,53,0.00,,,0.00,803.0,meteohub,2013-06-21 18:42:00,
2013-06-21 14:45:00,79.2,61.2,30.23,SSW,209,6.0,16.0,54,0.00,,,0.00,793.0,meteohub,2013-06-21 18:45:00,
2013-06-21 14:46:00,79.2,61.2,30.23,SW,221,6.0,16.0,54,0.00,,,0.00,793.0,meteohub,2013-06-21 18:46:00,
2013-06-21 14:49:00,79.3,61.2,30.23,SW,220,10.0,16.0,54,0.00,,,0.00,780.0,meteohub,2013-06-21 18:49:00,
2013-06-21 14:54:00,79.5,60.8,30.23,SW,233,7.0,15.0,53,0.00,,,0.00,775.0,meteohub,2013-06-21 18:54:00,
2013-06-21 15:00:00,79.5,61.3,30.23,South,174,8.0,15.0,54,0.00,,,0.00,758.0,meteohub,2013-06-21 19:00:00,
2013-06-21 15:05:00,79.5,60.8,30.23,SW,217,14.0,15.0,53,0.00,,,0.00,775.0,meteohub,2013-06-21 19:05:00,
2013-06-21 15:10:00,79.5,61.3,30.23,South,174,5.0,17.0,54,0.00,,,0.00,744.0,meteohub,2013-06-21 19:10:00,
2013-06-21 15:15:00,79.9,61.2,30.23,SSW,194,6.0,18.0,53,0.00,,,0.00,740.0,meteohub,2013-06-21 19:15:00,
2013-06-21 15:20:00,79.9,61.2,30.23,SSW,205,7.0,18.0,53,0.00,,,0.00,710.0,meteohub,2013-06-21 19:20:00,
2013-06-21 15:26:00,79.3,61.7,30.23,South,182,6.0,17.0,55,0.00,,,0.00,689.0,meteohub,2013-06-21 19:26:00,
2013-06-21 15:31:00,79.0,62.4,30.23,South,190,6.0,16.0,57,0.00,,,0.00,666.0,meteohub,2013-06-21 19:31:00,
2013-06-21 15:36:00,78.1,62.6,30.24,SW,228,5.0,16.0,59,0.00,,,0.00,679.0,meteohub,2013-06-21 19:36:00,
2013-06-21 15:41:00,78.1,62.6,30.24,SSW,209,0.0,15.0,59,0.00,,,0.00,650.0,meteohub,2013-06-21 19:41:00,
2013-06-21 15:42:00,78.3,63.3,30.24,SSW,198,4.0,15.0,60,0.00,,,0.00,659.0,meteohub,2013-06-21 19:42:00,
2013-06-21 15:43:00,78.4,63.0,30.24,SSE,163,5.0,15.0,59,0.00,,,0.00,657.0,meteohub,2013-06-21 19:43:00,
2013-06-21 15:48:00,78.8,62.8,30.23,SSE,162,4.0,13.0,58,0.00,,,0.00,664.0,meteohub,2013-06-21 19:48:00,
2013-06-21 15:53:00,78.3,62.8,30.24,SSW,196,5.0,13.0,59,0.00,,,0.00,649.0,meteohub,2013-06-21 19:53:00,
2013-06-21 15:58:00,78.3,63.3,30.24,South,173,5.0,13.0,60,0.00,,,0.00,640.0,meteohub,2013-06-21 19:58:00,
2013-06-21 16:03:00,79.0,63.9,30.23,SW,217,3.0,13.0,60,0.00,,,0.00,650.0,meteohub,2013-06-21 20:03:00,
2013-06-21 16:04:00,79.0,63.5,30.23,SSW,202,4.0,13.0,59,0.00,,,0.00,647.0,meteohub,2013-06-21 20:04:00,
2013-06-21 16:05:00,78.8,63.3,30.23,South,171,4.0,13.0,59,0.00,,,0.00,647.0,meteohub,2013-06-21 20:05:00,
2013-06-21 16:12:00,78.3,63.7,30.23,South,184,11.0,14.0,61,0.00,,,0.00,635.0,meteohub,2013-06-21 20:12:00,
2013-06-21 16:17:00,78.4,63.3,30.23,South,178,5.0,14.0,60,0.00,,,0.00,610.0,meteohub,2013-06-21 20:17:00,
2013-06-21 16:21:00,78.1,64.0,30.23,South,175,5.0,14.0,62,0.00,,,0.00,608.0,meteohub,2013-06-21 20:21:00,
2013-06-21 16:26:00,77.5,63.9,30.23,South,182,6.0,13.0,63,0.00,,,0.00,592.0,meteohub,2013-06-21 20:26:00,
2013-06-21 16:31:00,77.7,63.7,30.23,South,175,5.0,13.0,62,0.00,,,0.00,575.0,meteohub,2013-06-21 20:31:00,
2013-06-21 16:36:00,77.5,63.5,30.23,SW,226,7.0,13.0,62,0.00,,,0.00,557.0,meteohub,2013-06-21 20:36:00,
2013-06-21 16:41:00,77.0,62.6,30.22,South,169,4.0,15.0,61,0.00,,,0.00,550.0,meteohub,2013-06-21 20:41:00,
2013-06-21 16:47:00,76.6,63.1,30.23,SSW,201,3.0,16.0,63,0.00,,,0.00,534.0,meteohub,2013-06-21 20:47:00,
2013-06-21 16:52:00,76.6,62.6,30.23,South,172,6.0,16.0,62,0.00,,,0.00,531.0,meteohub,2013-06-21 20:52:00,
2013-06-21 16:57:00,76.5,63.0,30.23,SSW,209,6.0,16.0,63,0.00,,,0.00,508.0,meteohub,2013-06-21 20:57:00,
2013-06-21 17:02:00,76.3,62.2,30.23,SW,221,13.0,14.0,62,0.00,,,0.00,503.0,meteohub,2013-06-21 21:02:00,
2013-06-21 17:07:00,76.1,62.6,30.22,South,179,1.0,15.0,63,0.00,,,0.00,478.0,meteohub,2013-06-21 21:07:00,
2013-06-21 17:12:00,76.5,62.1,30.22,SW,233,6.0,15.0,61,0.00,,,0.00,454.0,meteohub,2013-06-21 21:12:00,
2013-06-21 17:17:00,76.6,62.2,30.22,WSW,238,5.0,15.0,61,0.00,,,0.00,436.0,meteohub,2013-06-21 21:17:00,
2013-06-21 17:22:00,76.3,61.9,30.22,SSW,212,7.0,12.0,61,0.00,,,0.00,438.0,meteohub,2013-06-21 21:22:00,
2013-06-21 17:28:00,75.9,61.5,30.22,WSW,243,8.0,15.0,61,0.00,,,0.00,417.0,meteohub,2013-06-21 21:28:00,
2013-06-21 17:33:00,75.9,61.5,30.22,SSW,192,6.0,15.0,61,0.00,,,0.00,387.0,meteohub,2013-06-21 21:33:00,
2013-06-21 17:38:00,75.9,61.5,30.22,South,177,6.0,15.0,61,0.00,,,0.00,374.0,meteohub,2013-06-21 21:38:00,
2013-06-21 17:43:00,75.7,61.3,30.22,SSE,157,6.0,15.0,61,0.00,,,0.00,362.0,meteohub,2013-06-21 21:43:00,
2013-06-21 17:48:00,75.4,61.5,30.22,South,185,3.0,16.0,62,0.00,,,0.00,359.0,meteohub,2013-06-21 21:48:00,
2013-06-21 17:53:00,75.4,61.0,30.22,SSW,205,6.0,16.0,61,0.00,,,0.00,341.0,meteohub,2013-06-21 21:53:00,
2013-06-21 17:59:00,75.4,61.0,30.22,South,175,9.0,16.0,61,0.00,,,0.00,322.0,meteohub,2013-06-21 21:59:00,
2013-06-21 18:04:00,75.0,60.6,30.22,South,171,5.0,12.0,61,0.00,,,0.00,308.0,meteohub,2013-06-21 22:04:00,
2013-06-21 18:09:00,75.0,61.5,30.22,South,174,6.0,15.0,63,0.00,,,0.00,290.0,meteohub,2013-06-21 22:09:00,
2013-06-21 18:15:00,74.7,61.2,30.22,SSW,204,7.0,15.0,63,0.00,,,0.00,272.0,meteohub,2013-06-21 22:15:00,
2013-06-21 18:20:00,74.7,61.7,30.22,South,185,2.0,15.0,64,0.00,,,0.00,262.0,meteohub,2013-06-21 22:20:00,
2013-06-21 18:25:00,74.5,61.5,30.22,SSW,207,8.0,13.0,64,0.00,,,0.00,248.0,meteohub,2013-06-21 22:25:00,
2013-06-21 18:30:00,74.5,61.9,30.23,SSE,159,0.0,13.0,65,0.00,,,0.00,227.0,meteohub,2013-06-21 22:30:00,
2013-06-21 18:35:00,74.5,61.5,30.23,South,179,6.0,13.0,64,0.00,,,0.00,221.0,meteohub,2013-06-21 22:35:00,
2013-06-21 18:40:00,73.9,61.9,30.22,SSW,192,3.0,19.0,66,0.00,,,0.00,206.0,meteohub,2013-06-21 22:40:00,
2013-06-21 18:45:00,73.9,61.3,30.23,ESE,120,4.0,19.0,65,0.00,,,0.00,193.0,meteohub,2013-06-21 22:45:00,
2013-06-21 18:50:00,73.9,61.3,30.23,SSE,163,4.0,19.0,65,0.00,,,0.00,174.0,meteohub,2013-06-21 22:50:00,
2013-06-21 18:56:00,73.6,61.2,30.23,SSW,203,3.0,11.0,65,0.00,,,0.00,155.0,meteohub,2013-06-21 22:56:00,
2013-06-21 19:01:00,73.2,60.8,30.23,SW,219,3.0,11.0,65,0.00,,,0.00,139.0,meteohub,2013-06-21 23:01:00,
2013-06-21 19:06:00,72.9,60.8,30.23,SW,235,6.0,10.0,66,0.00,,,0.00,127.0,meteohub,2013-06-21 23:06:00,
2013-06-21 19:11:00,72.5,60.4,30.24,South,184,1.0,11.0,66,0.00,,,0.00,93.0,meteohub,2013-06-21 23:11:00,
2013-06-21 19:16:00,72.3,60.8,30.23,SSW,207,4.0,11.0,67,0.00,,,0.00,79.0,meteohub,2013-06-21 23:16:00,
2013-06-21 19:21:00,72.1,60.6,30.24,South,186,7.0,11.0,67,0.00,,,0.00,76.0,meteohub,2013-06-21 23:21:00,
2013-06-21 19:26:00,71.8,60.3,30.24,SSW,195,5.0,9.0,67,0.00,,,0.00,60.0,meteohub,2013-06-21 23:26:00,
2013-06-21 19:32:00,71.4,59.9,30.23,South,176,2.0,10.0,67,0.00,,,0.00,53.0,meteohub,2013-06-21 23:32:00,
2013-06-21 19:37:00,71.2,59.7,30.24,SSW,200,1.0,10.0,67,0.00,,,0.00,44.0,meteohub,2013-06-21 23:37:00,
2013-06-21 19:42:00,71.1,59.9,30.24,SW,217,1.0,10.0,68,0.00,,,0.00,35.0,meteohub,2013-06-21 23:42:00,
2013-06-21 19:47:00,70.9,59.7,30.24,SSE,165,5.0,8.0,68,0.00,,,0.00,28.0,meteohub,2013-06-21 23:47:00,
2013-06-21 19:52:00,70.5,59.9,30.24,SW,227,1.0,8.0,69,0.00,,,0.00,25.0,meteohub,2013-06-21 23:52:00,
2013-06-21 19:57:00,70.3,60.1,30.24,South,177,2.0,8.0,70,0.00,,,0.00,21.0,meteohub,2013-06-21 23:57:00,
2013-06-21 20:02:00,70.2,59.9,30.24,SSE,162,1.0,8.0,70,0.00,,,0.00,19.0,meteohub,2013-06-22 00:02:00,
2013-06-21 20:07:00,70.0,60.1,30.24,SSE,159,0.0,8.0,71,0.00,,,0.00,18.0,meteohub,2013-06-22 00:07:00,
2013-06-21 20:12:00,70.0,60.6,30.24,SSE,159,1.0,8.0,72,0.00,,,0.00,14.0,meteohub,2013-06-22 00:12:00,
2013-06-21 20:17:00,69.6,60.3,30.24,SE,133,0.0,5.0,72,0.00,,,0.00,11.0,meteohub,2013-06-22 00:17:00,
2013-06-21 20:22:00,69.4,60.1,30.25,SSE,154,0.0,7.0,72,0.00,,,0.00,5.0,meteohub,2013-06-22 00:22:00,
2013-06-21 20:27:00,69.3,60.3,30.25,SSE,158,0.0,7.0,73,0.00,,,0.00,0.0,meteohub,2013-06-22 00:27:00,
2013-06-21 20:32:00,69.1,60.1,30.24,SSE,165,4.0,7.0,73,0.00,,,0.00,0.0,meteohub,2013-06-22 00:32:00,
2013-06-21 20:37:00,68.9,60.3,30.24,SSE,165,2.0,6.0,74,0.00,,,0.00,0.0,meteohub,2013-06-22 00:37:00,
2013-06-21 20:43:00,68.5,59.9,30.24,SSE,150,0.0,5.0,74,0.00,,,0.00,0.0,meteohub,2013-06-22 00:43:00,
2013-06-21 20:48:00,68.4,60.1,30.25,SSE,150,0.0,6.0,75,0.00,,,0.00,0.0,meteohub,2013-06-22 00:48:00,
2013-06-21 20:53:00,68.2,60.3,30.24,SSE,150,0.0,6.0,76,0.00,,,0.00,0.0,meteohub,2013-06-22 00:53:00,
2013-06-21 20:58:00,68.0,60.1,30.24,SSW,196,0.0,4.0,76,0.00,,,0.00,0.0,meteohub,2013-06-22 00:58:00,
2013-06-21 21:03:00,67.8,59.9,30.25,SSW,196,0.0,4.0,76,0.00,,,0.00,0.0,meteohub,2013-06-22 01:03:00,
2013-06-21 21:09:00,67.8,60.3,30.25,SSW,196,0.0,3.0,77,0.00,,,0.00,0.0,meteohub,2013-06-22 01:09:00,
2013-06-21 21:14:00,67.5,60.4,30.25,SSW,196,1.0,3.0,78,0.00,,,0.00,0.0,meteohub,2013-06-22 01:14:00,
2013-06-21 21:19:00,67.1,60.1,30.25,SSW,196,0.0,1.0,78,0.00,,,0.00,0.0,meteohub,2013-06-22 01:19:00,
2013-06-21 21:24:00,67.1,60.4,30.24,SSW,196,0.0,1.0,79,0.00,,,0.00,0.0,meteohub,2013-06-22 01:24:00,
2013-06-21 21:29:00,66.9,60.3,30.24,SSW,196,0.0,1.0,79,0.00,,,0.00,0.0,meteohub,2013-06-22 01:29:00,
2013-06-21 21:34:00,66.7,60.4,30.25,SSW,196,0.0,0.0,80,0.00,,,0.00,0.0,meteohub,2013-06-22 01:34:00,
2013-06-21 21:39:00,66.7,60.4,30.25,SSW,196,0.0,0.0,80,0.00,,,0.00,0.0,meteohub,2013-06-22 01:39:00,
2013-06-21 21:44:00,66.4,60.4,30.25,SSW,196,0.0,0.0,81,0.00,,,0.00,0.0,meteohub,2013-06-22 01:44:00,
2013-06-21 21:50:00,65.8,60.3,30.25,SSW,196,0.0,0.0,82,0.00,,,0.00,0.0,meteohub,2013-06-22 01:50:00,
2013-06-21 21:55:00,65.7,60.1,30.25,SSW,196,0.0,0.0,82,0.00,,,0.00,0.0,meteohub,2013-06-22 01:55:00,
2013-06-21 22:00:00,65.7,60.4,30.25,SSW,196,0.0,0.0,83,0.00,,,0.00,0.0,meteohub,2013-06-22 02:00:00,
2013-06-21 22:05:00,65.3,60.1,30.25,SSW,196,0.0,1.0,83,0.00,,,0.00,0.0,meteohub,2013-06-22 02:05:00,
2013-06-21 22:10:00,64.9,59.7,30.25,SSW,196,0.0,1.0,83,0.00,,,0.00,0.0,meteohub,2013-06-22 02:10:00,
2013-06-21 22:15:00,64.8,59.5,30.25,SSW,196,0.0,1.0,83,0.00,,,0.00,0.0,meteohub,2013-06-22 02:15:00,
2013-06-21 22:20:00,64.4,59.5,30.25,SSW,196,0.0,1.0,84,0.00,,,0.00,0.0,meteohub,2013-06-22 02:20:00,
2013-06-21 22:25:00,64.0,59.4,30.25,SSW,196,0.0,0.0,85,0.00,,,0.00,0.0,meteohub,2013-06-22 02:25:00,
2013-06-21 22:31:00,63.9,59.2,30.25,SSW,196,0.0,0.0,85,0.00,,,0.00,0.0,meteohub,2013-06-22 02:31:00,
2013-06-21 22:36:00,63.7,59.4,30.25,SSW,196,0.0,0.0,86,0.00,,,0.00,0.0,meteohub,2013-06-22 02:36:00,
2013-06-21 22:41:00,63.3,59.0,30.24,SSW,196,0.0,0.0,86,0.00,,,0.00,0.0,meteohub,2013-06-22 02:41:00,
2013-06-21 22:46:00,63.1,59.2,30.24,SSW,196,0.0,0.0,87,0.00,,,0.00,0.0,meteohub,2013-06-22 02:46:00,
2013-06-21 22:51:00,63.1,59.2,30.24,SSW,196,0.0,0.0,87,0.00,,,0.00,0.0,meteohub,2013-06-22 02:51:00,
2013-06-21 22:56:00,63.1,59.5,30.25,SSW,196,0.0,0.0,88,0.00,,,0.00,0.0,meteohub,2013-06-22 02:56:00,
2013-06-21 23:01:00,63.0,59.0,30.25,SSW,196,0.0,0.0,87,0.00,,,0.00,0.0,meteohub,2013-06-22 03:01:00,
2013-06-21 23:07:00,63.0,59.4,30.25,SSW,196,0.0,0.0,88,0.00,,,0.00,0.0,meteohub,2013-06-22 03:07:00,
2013-06-21 23:12:00,63.0,59.4,30.25,SSW,196,0.0,0.0,88,0.00,,,0.00,0.0,meteohub,2013-06-22 03:12:00,
2013-06-21 23:17:00,62.8,59.2,30.25,SSW,196,0.0,0.0,88,0.00,,,0.00,0.0,meteohub,2013-06-22 03:17:00,
2013-06-21 23:22:00,62.2,58.6,30.25,SSW,196,0.0,0.0,88,0.00,,,0.00,0.0,meteohub,2013-06-22 03:22:00,
2013-06-21 23:27:00,62.1,58.8,30.25,SSW,196,0.0,0.0,89,0.00,,,0.00,0.0,meteohub,2013-06-22 03:27:00,
2013-06-21 23:32:00,62.2,59.0,30.25,SSW,196,0.0,0.0,89,0.00,,,0.00,0.0,meteohub,2013-06-22 03:32:00,
2013-06-21 23:37:00,62.1,58.8,30.25,SSW,196,0.0,0.0,89,0.00,,,0.00,0.0,meteohub,2013-06-22 03:37:00,
2013-06-21 23:42:00,61.9,58.6,30.25,SSW,196,0.0,0.0,89,0.00,,,0.00,0.0,meteohub,2013-06-22 03:42:00,
2013-06-21 23:47:00,61.7,58.5,30.25,SSW,196,0.0,1.0,89,0.00,,,0.00,0.0,meteohub,2013-06-22 03:47:00,
2013-06-21 23:52:00,61.5,58.6,30.25,SSW,196,0.0,1.0,90,0.00,,,0.00,0.0,meteohub,2013-06-22 03:52:00,
2013-06-21 23:57:00,61.5,58.6,30.24,SSW,196,0.0,1.0,90,0.00,,,0.00,0.0,meteohub,2013-06-22 03:57:00,